Change the Weather History Date:

Thursday, February 27, 2014

  Actual Average (KDSM) Record (KDSM)
Temperature  
Mean Temperature 5 °F 32 °F  
Max Temperature 14 °F 41 °F 68 °F (1981)
Min Temperature -4 °F 23 °F -11 °F (1962)
Degree Days  
Heating Degree Days 60 33  
Month to date heating degree days 1018  
Since 1 July heating degree days 4798  
Cooling Degree Days 0 0  
Month to date cooling degree days 0  
Year to date cooling degree days 0  
Moisture  
Dew Point -12 °F    
Average Humidity 52    
Maximum Humidity 67    
Minimum Humidity 40    
Precipitation  
Precipitation 0.00 in 0.06 in 1.76 in (1948)
Month to date precipitation 1.23  
Year to date precipitation 2.23  
Snow  
Snow 0.00 in 0.20 in 3.10 in (1886)
Month to date snowfall 7.7  
Since 1 July snowfall 28.1  
Snow Depth -    
Sea Level Pressure  
Sea Level Pressure 30.13 in    
Wind  
Wind Speed 13 mph (NNE)    
Max Wind Speed 22 mph    
Max Gust Speed 30 mph    
Visibility 10 miles    
Events Snow    
T = Trace of Precipitation, MM = Missing Value Source: NWS Daily Summary

Daily Weather History Graph

Daily Weather History Graph

Search for Another Location

Airport or City:

Trip Planner

Search our weather history database for the weather conditions in past years. The results will help you decide how hot, cold, wet, or windy it might be!

Date:

Astronomy

Feb. 27, 2014 Rise Set
Actual Time 6:52 AM CST 6:02 PM CST
Civil Twilight 6:24 AM CST 6:30 PM CST
Nautical Twilight 5:52 AM CST 7:02 PM CST
Astronomical Twilight 5:19 AM CST 7:34 PM CST
Moon 5:26 AM CST (2/27) 4:28 PM CST (2/27)
Length of Visible Light 12h 06m
Length of Day
11h 10m
Waning Crescent, 4% of the Moon is Illuminated
Feb 27
Waning Crescent
Mar 1
New
Mar 8
First Quarter
Mar 16
Full
Mar 23
Last Quarter

Hourly Weather History & Observations

Time (CST) Temp. Windchill Dew Point Humidity Pressure Visibility Wind Dir Wind Speed Gust Speed Precip Events Conditions
12:15 AM 14.0 °F -3.0 °F 5.0 °F 67% 29.96 in 8.0 mi NNW 18.4 mph 27.6 mph N/A Snow Light Snow
12:35 AM 14.0 °F -4.3 °F 1.4 °F 57% 29.97 in 10.0 mi NNW 21.9 mph 27.6 mph N/A   Partly Cloudy
12:55 AM 12.2 °F -5.8 °F -0.4 °F 57% 29.99 in 10.0 mi NNW 19.6 mph 28.8 mph N/A   Clear
1:15 AM 10.4 °F -8.6 °F -0.4 °F 62% 30.00 in 10.0 mi NNW 20.7 mph 29.9 mph N/A   Clear
1:35 AM 10.4 °F -8.6 °F -0.4 °F 62% 30.01 in 10.0 mi NNW 20.7 mph 28.8 mph N/A   Clear
1:55 AM 8.6 °F -9.5 °F -2.2 °F 62% 30.03 in 10.0 mi NNW 17.3 mph 25.3 mph N/A   Clear
2:15 AM 8.6 °F -9.5 °F -2.2 °F 62% 30.03 in 10.0 mi NW 17.3 mph 23.0 mph N/A   Clear
2:35 AM 6.8 °F -13.4 °F -9.4 °F 48% 30.04 in 10.0 mi NNW 20.7 mph 27.6 mph N/A   Clear
2:55 AM 6.8 °F -11.3 °F -11.2 °F 44% 30.05 in 10.0 mi NNW 16.1 mph 23.0 mph N/A   Clear
3:15 AM 5.0 °F -14.7 °F -14.8 °F 40% 30.06 in 10.0 mi NNW 18.4 mph 28.8 mph N/A   Clear
3:35 AM 3.2 °F -17.1 °F -14.8 °F 43% 30.06 in 10.0 mi NNW 18.4 mph - N/A   Clear
3:55 AM 3.2 °F -17.1 °F -14.8 °F 43% 30.07 in 10.0 mi NNW 18.4 mph 25.3 mph N/A   Clear
4:15 AM 3.2 °F -14.6 °F -14.8 °F 43% 30.08 in 10.0 mi NNW 13.8 mph 25.3 mph N/A   Clear
4:35 AM 1.4 °F -16.9 °F -14.8 °F 47% 30.09 in 10.0 mi NNW 13.8 mph - N/A   Clear
4:55 AM 1.4 °F -14.5 °F -14.8 °F 47% 30.10 in 10.0 mi NNW 10.4 mph - N/A   Clear
5:15 AM 1.4 °F -16.9 °F -13.0 °F 51% 30.11 in 10.0 mi NNW 13.8 mph 24.2 mph N/A   Clear
5:35 AM -0.4 °F -19.2 °F -14.8 °F 51% 30.12 in 10.0 mi NW 13.8 mph 20.7 mph N/A   Clear
5:55 AM -0.4 °F -19.2 °F -14.8 °F 51% 30.13 in 10.0 mi NNW 13.8 mph - N/A   Clear
6:15 AM -2.2 °F -23.5 °F -14.8 °F 55% 30.14 in 10.0 mi NNW 17.3 mph - N/A   Clear
6:35 AM -2.2 °F -20.7 °F -16.6 °F 50% 30.15 in 10.0 mi North 12.7 mph - N/A   Clear
6:55 AM -2.2 °F -23.5 °F -14.8 °F 55% 30.16 in 10.0 mi NNW 17.3 mph - N/A   Clear
7:15 AM -4.0 °F -24.5 °F -16.6 °F 55% 30.17 in 10.0 mi NNW 15.0 mph 23.0 mph N/A   Clear
7:35 AM -4.0 °F -23.7 °F -16.6 °F 55% 30.19 in 10.0 mi NNW 13.8 mph - N/A   Clear
7:55 AM -4.0 °F -24.5 °F -16.6 °F 55% 30.20 in 10.0 mi NNW 15.0 mph - N/A   Clear
8:15 AM -4.0 °F -22.1 °F -16.6 °F 55% 30.21 in 10.0 mi NNW 11.5 mph 19.6 mph N/A   Clear
8:35 AM -4.0 °F -22.1 °F -16.6 °F 55% 30.21 in 10.0 mi North 11.5 mph - N/A   Clear
8:55 AM -2.2 °F -21.5 °F -18.4 °F 46% 30.22 in 10.0 mi North 13.8 mph - N/A   Clear
9:15 AM -2.2 °F -18.9 °F -16.6 °F 50% 30.23 in 10.0 mi NW 10.4 mph - N/A   Clear
9:35 AM -2.2 °F -16.8 °F -16.6 °F 50% 30.23 in 10.0 mi NNW 8.1 mph - N/A   Clear
9:55 AM -2.2 °F -20.7 °F -16.6 °F 50% 30.22 in 10.0 mi North 12.7 mph - N/A   Clear
10:15 AM -2.2 °F -18.9 °F -16.6 °F 50% 30.22 in 10.0 mi NNW 10.4 mph - N/A   Clear
10:35 AM -0.4 °F -15.7 °F -16.6 °F 46% 30.22 in 10.0 mi North 9.2 mph - N/A   Clear
10:55 AM -0.4 °F -15.7 °F -14.8 °F 51% 30.22 in 10.0 mi North 9.2 mph - N/A   Clear
11:15 AM -0.4 °F - -16.6 °F 46% 30.22 in 10.0 mi Calm Calm - N/A   Clear
11:35 AM -0.4 °F -12.0 °F -14.8 °F 51% 30.23 in 10.0 mi Variable 5.8 mph - N/A   Clear
11:55 AM 1.4 °F -11.3 °F -14.8 °F 47% 30.22 in 10.0 mi NE 6.9 mph - N/A   Clear
12:15 PM 1.4 °F -11.3 °F -16.6 °F 43% 30.22 in 10.0 mi Variable 6.9 mph - N/A   Clear
12:35 PM 1.4 °F -9.9 °F -14.8 °F 47% 30.21 in - NE 5.8 mph - N/A   Clear
12:55 PM 1.4 °F -11.3 °F -14.8 °F 47% 30.19 in 10.0 mi NNE 6.9 mph - N/A   Clear
1:15 PM 1.4 °F -8.3 °F -14.8 °F 47% 30.19 in 10.0 mi Variable 4.6 mph - N/A   Clear
1:35 PM 3.2 °F -6.2 °F -14.8 °F 43% 30.18 in 10.0 mi North 4.6 mph - N/A   Clear
1:55 PM 3.2 °F -6.2 °F -14.8 °F 43% 30.17 in 10.0 mi North 4.6 mph - N/A   Clear
2:15 PM 3.2 °F -7.8 °F -13.0 °F 47% 30.17 in 10.0 mi NE 5.8 mph - N/A   Clear
2:30 PM 3.2 °F -9.1 °F -13.0 °F 47% 30.16 in 10.0 mi NNE 6.9 mph - N/A   Clear
2:55 PM 3.2 °F -9.1 °F -13.0 °F 47% 30.16 in 10.0 mi North 6.9 mph - N/A   Clear
3:15 PM 3.2 °F -10.3 °F -13.0 °F 47% 30.15 in 10.0 mi NE 8.1 mph - N/A   Clear
3:35 PM 5.0 °F -5.6 °F -11.2 °F 47% 30.15 in 10.0 mi NE 5.8 mph - N/A   Clear
3:55 PM 3.2 °F -6.2 °F -13.0 °F 47% 30.14 in 10.0 mi Variable 4.6 mph - N/A   Clear
4:15 PM 3.2 °F -9.1 °F -13.0 °F 47% 30.14 in 10.0 mi NE 6.9 mph - N/A   Clear
4:35 PM 3.2 °F - -14.8 °F 43% 30.14 in 10.0 mi Calm Calm - N/A   Scattered Clouds
4:55 PM 3.2 °F -7.8 °F -13.0 °F 47% 30.13 in 10.0 mi NE 5.8 mph - N/A   Overcast
5:15 PM 3.2 °F -9.1 °F -11.2 °F 51% 30.13 in 10.0 mi ENE 6.9 mph - N/A   Overcast
5:35 PM 3.2 °F -9.1 °F -11.2 °F 51% 30.12 in 10.0 mi NE 6.9 mph - N/A   Overcast
5:55 PM 5.0 °F -5.6 °F -11.2 °F 47% 30.12 in 10.0 mi ENE 5.8 mph - N/A   Overcast
6:15 PM 3.2 °F -7.8 °F -11.2 °F 51% 30.12 in 10.0 mi NE 5.8 mph - N/A   Overcast
6:35 PM 3.2 °F -7.8 °F -9.4 °F 56% 30.11 in 10.0 mi ENE 5.8 mph - N/A   Overcast
6:50 PM 3.2 °F -9.1 °F -9.4 °F 56% 30.12 in 10.0 mi ENE 6.9 mph - N/A   Scattered Clouds
7:10 PM 3.2 °F -10.3 °F -9.4 °F 56% 30.12 in 10.0 mi ENE 8.1 mph - N/A   Mostly Cloudy
7:35 PM 3.2 °F -10.3 °F -9.4 °F 56% 30.12 in 10.0 mi East 8.1 mph - N/A   Overcast
7:55 PM 3.2 °F -9.1 °F -9.4 °F 56% 30.11 in 10.0 mi East 6.9 mph 12.7 mph N/A   Overcast
8:15 PM 3.2 °F -6.2 °F -9.4 °F 56% 30.12 in 10.0 mi East 4.6 mph - N/A   Mostly Cloudy
8:35 PM 3.2 °F -7.8 °F -9.4 °F 56% 30.11 in 10.0 mi ESE 5.8 mph - N/A   Partly Cloudy
8:55 PM 3.2 °F -7.8 °F -9.4 °F 56% 30.12 in 10.0 mi East 5.8 mph - N/A   Clear
9:15 PM 1.4 °F -8.3 °F -9.4 °F 61% 30.11 in 10.0 mi East 4.6 mph - N/A   Clear
9:35 PM 1.4 °F -9.9 °F -9.4 °F 61% 30.10 in 10.0 mi ENE 5.8 mph - N/A   Clear
9:55 PM 1.4 °F -11.3 °F -9.4 °F 61% 30.10 in 10.0 mi East 6.9 mph - N/A   Clear
10:15 PM 1.4 °F -11.3 °F -9.4 °F 61% 30.10 in 10.0 mi East 6.9 mph - N/A   Partly Cloudy
10:35 PM -0.4 °F -12.0 °F -9.4 °F 66% 30.09 in 10.0 mi East 5.8 mph - N/A   Partly Cloudy
10:55 PM -0.4 °F - -9.4 °F 66% 30.09 in 10.0 mi North - - N/A   Clear
11:15 PM -0.4 °F -13.4 °F -9.4 °F 66% 30.08 in 10.0 mi East 6.9 mph - N/A   Clear
11:35 PM 1.4 °F -13.5 °F -7.6 °F 66% 30.06 in 10.0 mi ESE 9.2 mph - N/A   Partly Cloudy
11:55 PM 1.4 °F -13.5 °F -7.6 °F 66% 30.05 in 10.0 mi ESE 9.2 mph - N/A   Partly Cloudy